Time,TemperatureF,DewpointF,PressureIn,WindDirection,WindDirectionDegrees,WindSpeedMPH,WindSpeedGustMPH,Humidity,HourlyPrecipIn,Conditions,Clouds,dailyrainin,SoftwareType,DateUTC
2013-05-04 00:02:00,64.6,51.6,30.03,NNW,337,0.4,0.4,63,0.00,,,0.00,,2013-05-03 22:02:00,
2013-05-04 00:07:00,64.4,51.8,30.03,NE,45,1.7,1.7,64,0.00,,,0.00,,2013-05-03 22:07:00,
2013-05-04 00:12:00,64.4,51.8,30.00,NE,45,0.0,0.0,64,0.00,,,0.00,,2013-05-03 22:12:00,
2013-05-04 00:17:00,64.8,52.2,30.00,NE,45,1.7,3.5,64,0.00,,,0.00,,2013-05-03 22:17:00,
2013-05-04 00:22:00,64.9,51.4,30.00,NE,45,1.7,1.7,62,0.00,,,0.00,,2013-05-03 22:22:00,
2013-05-04 00:27:00,65.1,51.6,30.00,North,0,2.2,4.0,62,0.00,,,0.00,,2013-05-03 22:27:00,
2013-05-04 00:32:00,65.3,51.4,30.00,NE,45,2.2,2.2,61,0.00,,,0.00,,2013-05-03 22:32:00,
2013-05-04 00:37:00,65.3,51.4,30.00,NE,45,2.6,3.5,61,0.00,,,0.00,,2013-05-03 22:37:00,
2013-05-04 08:39:00,69.4,56.7,30.03,NW,315,0.4,0.4,64,0.00,,,0.00,,2013-05-04 06:39:00,
2013-05-04 08:44:00,69.4,56.7,30.03,NW,315,0.0,0.0,64,0.00,,,0.00,,2013-05-04 06:44:00,
2013-05-04 08:49:00,69.6,57.2,30.03,West,270,0.0,0.0,65,0.00,,,0.00,,2013-05-04 06:49:00,
2013-05-04 08:54:00,69.8,57.0,30.03,NW,315,0.0,0.0,64,0.00,,,0.00,,2013-05-04 06:54:00,
2013-05-04 08:59:00,70.0,57.6,30.03,NNW,337,0.0,0.0,65,0.00,,,0.00,,2013-05-04 06:59:00,
2013-05-04 09:04:00,69.8,57.9,30.00,North,0,0.8,1.7,66,0.00,,,0.00,,2013-05-04 07:04:00,
2013-05-04 09:09:00,70.0,58.5,30.00,NW,315,0.8,3.1,67,0.00,,,0.00,,2013-05-04 07:09:00,
2013-05-04 09:14:00,70.2,58.1,30.03,NNW,337,0.0,0.0,66,0.00,,,0.00,,2013-05-04 07:14:00,
2013-05-04 09:19:00,70.2,59.0,30.03,West,270,0.8,2.2,68,0.00,,,0.00,,2013-05-04 07:19:00,
2013-05-04 09:24:00,70.2,59.0,30.03,WNW,292,0.8,1.7,68,0.00,,,0.00,,2013-05-04 07:24:00,
2013-05-04 09:29:00,70.2,59.0,30.03,WNW,292,1.3,2.6,68,0.00,,,0.00,,2013-05-04 07:29:00,
2013-05-04 09:34:00,70.2,59.0,30.03,WNW,292,0.8,1.7,68,0.00,,,0.00,,2013-05-04 07:34:00,
2013-05-04 09:39:00,70.0,58.8,30.03,WNW,292,1.3,1.7,68,0.00,,,0.00,,2013-05-04 07:39:00,
2013-05-04 09:44:00,69.8,58.6,30.06,NW,315,1.7,1.7,68,0.00,,,0.00,,2013-05-04 07:44:00,
2013-05-04 09:49:00,69.8,58.6,30.06,North,0,0.8,1.7,68,0.00,,,0.00,,2013-05-04 07:49:00,
2013-05-04 09:54:00,69.8,58.6,30.03,NNW,337,1.3,1.3,68,0.00,,,0.00,,2013-05-04 07:54:00,
2013-05-04 09:59:00,70.0,58.5,30.03,NW,315,1.3,1.3,67,0.00,,,0.00,,2013-05-04 07:59:00,
2013-05-04 10:04:00,70.2,58.6,30.06,NNW,337,0.8,3.1,67,0.00,,,0.00,,2013-05-04 08:04:00,
2013-05-04 10:09:00,70.5,59.0,30.06,NNW,337,0.8,0.0,67,0.00,,,0.00,,2013-05-04 08:09:00,
2013-05-04 10:14:00,70.7,58.3,30.06,NNE,22,1.7,3.1,65,0.00,,,0.00,,2013-05-04 08:14:00,
2013-05-04 10:19:00,70.7,58.3,30.06,NNE,22,0.8,2.6,65,0.00,,,0.00,,2013-05-04 08:19:00,
2013-05-04 10:24:00,70.9,57.9,30.03,NE,45,0.8,0.8,64,0.00,,,0.00,,2013-05-04 08:24:00,
2013-05-04 10:29:00,71.4,59.0,30.03,NNW,337,0.8,1.7,65,0.00,,,0.00,,2013-05-04 08:29:00,
2013-05-04 10:34:00,72.0,59.0,30.03,NNW,337,0.4,2.2,64,0.00,,,0.00,,2013-05-04 08:34:00,
2013-05-04 10:39:00,72.3,59.0,30.03,WNW,292,0.8,2.6,63,0.00,,,0.00,,2013-05-04 08:39:00,
2013-05-04 10:44:00,72.9,59.4,30.03,West,270,0.4,0.0,63,0.00,,,0.00,,2013-05-04 08:44:00,
2013-05-04 10:49:00,72.9,59.0,30.03,NW,315,1.7,2.2,62,0.00,,,0.00,,2013-05-04 08:49:00,
2013-05-04 10:54:00,73.0,58.6,30.03,NW,315,1.7,3.5,61,0.00,,,0.00,,2013-05-04 08:54:00,
2013-05-04 10:59:00,73.0,58.6,30.03,West,270,0.4,1.7,61,0.00,,,0.00,,2013-05-04 08:59:00,
2013-05-04 11:04:00,73.2,58.8,30.03,West,270,1.7,1.7,61,0.00,,,0.00,,2013-05-04 09:04:00,
2013-05-04 11:09:00,73.6,59.2,30.03,NNW,337,0.8,1.3,61,0.00,,,0.00,,2013-05-04 09:09:00,
2013-05-04 11:14:00,73.8,59.0,30.03,North,0,1.7,3.5,60,0.00,,,0.00,,2013-05-04 09:14:00,
2013-05-04 11:19:00,73.9,59.0,30.03,North,0,0.4,0.0,60,0.00,,,0.00,,2013-05-04 09:19:00,
2013-05-04 11:24:00,74.7,59.4,30.03,NW,315,1.7,0.0,59,0.00,,,0.00,,2013-05-04 09:24:00,
2013-05-04 11:29:00,74.8,59.5,30.03,West,270,0.8,1.3,59,0.00,,,0.00,,2013-05-04 09:29:00,
2013-05-04 11:34:00,74.8,59.0,30.03,NW,315,2.6,2.6,58,0.00,,,0.00,,2013-05-04 09:34:00,
2013-05-04 11:39:00,75.2,59.7,30.03,WNW,292,1.7,3.5,59,0.00,,,0.00,,2013-05-04 09:39:00,
2013-05-04 11:44:00,75.4,59.0,30.03,SW,225,1.3,2.6,57,0.00,,,0.00,,2013-05-04 09:44:00,
2013-05-04 11:49:00,75.7,59.4,30.03,NW,315,0.8,2.6,57,0.00,,,0.00,,2013-05-04 09:49:00,
2013-05-04 11:54:00,75.7,58.8,30.06,West,270,1.3,1.7,56,0.00,,,0.00,,2013-05-04 09:54:00,
2013-05-04 11:59:00,76.5,59.5,30.06,NW,315,0.8,2.2,56,0.00,,,0.00,,2013-05-04 09:59:00,
2013-05-04 12:04:00,76.5,59.0,30.03,WNW,292,1.7,1.7,55,0.00,,,0.00,,2013-05-04 10:04:00,
2013-05-04 12:09:00,76.5,59.0,30.03,WNW,292,1.7,3.1,55,0.00,,,0.00,,2013-05-04 10:09:00,
2013-05-04 12:14:00,76.5,59.0,30.03,WNW,292,0.8,0.0,55,0.00,,,0.00,,2013-05-04 10:14:00,
2013-05-04 12:19:00,76.5,58.5,30.03,NNW,337,2.6,4.0,54,0.00,,,0.00,,2013-05-04 10:19:00,
2013-05-04 12:24:00,76.6,58.6,30.03,WNW,292,2.2,2.2,54,0.00,,,0.00,,2013-05-04 10:24:00,
2013-05-04 12:29:00,76.5,57.9,30.03,WNW,292,2.2,2.2,53,0.00,,,0.00,,2013-05-04 10:29:00,
2013-05-04 12:34:00,76.8,57.7,30.03,NNE,22,1.7,2.6,52,0.00,,,0.00,,2013-05-04 10:34:00,
2013-05-04 12:39:00,77.0,57.9,30.03,North,0,1.3,4.0,52,0.00,,,0.00,,2013-05-04 10:39:00,
2013-05-04 12:44:00,77.4,57.7,30.03,NW,315,2.2,2.2,51,0.00,,,0.00,,2013-05-04 10:44:00,
2013-05-04 12:49:00,77.5,57.4,30.03,NW,315,2.6,4.0,50,0.00,,,0.00,,2013-05-04 10:49:00,
2013-05-04 12:54:00,77.4,57.2,30.03,NE,45,0.8,0.8,50,0.00,,,0.00,,2013-05-04 10:54:00,
2013-05-04 12:59:00,78.1,57.9,30.03,NNW,337,1.7,2.2,50,0.00,,,0.00,,2013-05-04 10:59:00,
2013-05-04 13:04:00,78.4,56.5,30.03,NNW,337,1.7,5.8,47,0.00,,,0.00,,2013-05-04 11:04:00,
2013-05-04 13:09:00,78.1,56.1,30.03,NNE,22,1.3,2.6,47,0.00,,,0.00,,2013-05-04 11:09:00,
2013-05-04 13:14:00,77.7,55.8,30.00,NNE,22,0.8,2.6,47,0.00,,,0.00,,2013-05-04 11:14:00,
2013-05-04 13:19:00,78.1,56.1,30.00,North,0,0.8,0.0,47,0.00,,,0.00,,2013-05-04 11:19:00,
2013-05-04 13:24:00,78.8,56.8,30.00,WNW,292,1.3,2.2,47,0.00,,,0.00,,2013-05-04 11:24:00,
2013-05-04 13:29:00,79.0,55.8,30.00,NW,315,1.7,1.7,45,0.00,,,0.00,,2013-05-04 11:29:00,
2013-05-04 13:34:00,79.2,55.9,30.03,WNW,292,1.3,2.2,45,0.00,,,0.00,,2013-05-04 11:34:00,
2013-05-04 13:39:00,79.2,55.9,30.03,West,270,1.7,3.1,45,0.00,,,0.00,,2013-05-04 11:39:00,
2013-05-04 13:44:00,79.0,56.3,30.03,West,270,1.7,2.2,46,0.00,,,0.00,,2013-05-04 11:44:00,
2013-05-04 13:49:00,79.0,56.3,30.03,SW,225,2.6,5.8,46,0.00,,,0.00,,2013-05-04 11:49:00,
2013-05-04 13:54:00,78.4,56.5,30.00,SSW,202,2.2,2.2,47,0.00,,,0.00,,2013-05-04 11:54:00,
2013-05-04 13:59:00,78.6,59.9,30.00,SSW,202,3.5,5.3,53,0.00,,,0.00,,2013-05-04 11:59:00,
2013-05-04 14:04:00,78.4,59.7,30.00,NW,315,1.7,3.1,53,0.00,,,0.00,,2013-05-04 12:04:00,
2013-05-04 14:09:00,78.4,58.6,30.00,WNW,292,0.8,0.8,51,0.00,,,0.00,,2013-05-04 12:09:00,
2013-05-04 14:14:00,78.3,59.7,30.00,West,270,2.6,3.5,53,0.00,,,0.00,,2013-05-04 12:14:00,
2013-05-04 14:19:00,78.3,58.6,30.00,West,270,1.3,2.2,51,0.00,,,0.00,,2013-05-04 12:19:00,
2013-05-04 14:24:00,78.1,58.5,30.03,NNW,337,1.3,1.3,51,0.00,,,0.00,,2013-05-04 12:24:00,
2013-05-04 14:29:00,78.8,59.0,30.03,NW,315,1.3,1.7,51,0.00,,,0.00,,2013-05-04 12:29:00,
2013-05-04 14:34:00,79.3,60.1,30.00,WNW,292,1.3,2.2,52,0.00,,,0.00,,2013-05-04 12:34:00,
2013-05-04 14:44:00,79.7,59.9,30.00,West,270,1.7,3.5,51,0.00,,,0.00,,2013-05-04 12:44:00,
2013-05-04 14:49:00,79.9,60.1,30.00,NW,315,0.8,0.0,51,0.00,,,0.00,,2013-05-04 12:49:00,
2013-05-04 14:54:00,80.1,60.8,30.00,WSW,247,2.2,2.6,52,0.00,,,0.00,,2013-05-04 12:54:00,
2013-05-04 14:59:00,79.9,60.6,30.00,WSW,247,0.8,1.7,52,0.00,,,0.00,,2013-05-04 12:59:00,
2013-05-04 15:04:00,80.2,61.0,30.00,WNW,292,0.8,2.6,52,0.00,,,0.00,,2013-05-04 13:04:00,
2013-05-04 15:09:00,80.4,59.9,30.00,WNW,292,1.7,4.0,50,0.00,,,0.00,,2013-05-04 13:09:00,
2013-05-04 15:14:00,80.2,60.4,30.00,WNW,292,1.7,5.3,51,0.00,,,0.00,,2013-05-04 13:14:00,
2013-05-04 15:19:00,79.5,59.7,30.00,West,270,2.2,2.2,51,0.00,,,0.00,,2013-05-04 13:19:00,
2013-05-04 15:24:00,79.2,59.9,30.00,WSW,247,2.6,4.9,52,0.00,,,0.00,,2013-05-04 13:24:00,
2013-05-04 15:29:00,79.0,60.3,30.00,WNW,292,2.2,4.4,53,0.00,,,0.00,,2013-05-04 13:29:00,
2013-05-04 15:34:00,79.0,59.7,29.97,WNW,292,2.2,3.1,52,0.00,,,0.00,,2013-05-04 13:34:00,
2013-05-04 15:39:00,79.0,59.7,29.97,NNW,337,2.2,2.2,52,0.00,,,0.00,,2013-05-04 13:39:00,
2013-05-04 15:44:00,79.5,60.3,29.97,NNW,337,1.7,2.2,52,0.00,,,0.00,,2013-05-04 13:44:00,
2013-05-04 15:49:00,79.7,60.4,29.97,NW,315,1.3,1.7,52,0.00,,,0.00,,2013-05-04 13:49:00,
2013-05-04 15:54:00,79.9,60.6,29.97,WNW,292,1.7,1.7,52,0.00,,,0.00,,2013-05-04 13:54:00,
2013-05-04 15:59:00,80.6,61.3,29.97,WNW,292,0.8,2.6,52,0.00,,,0.00,,2013-05-04 13:59:00,
2013-05-04 16:04:00,80.8,60.8,29.97,WNW,292,1.7,1.7,51,0.00,,,0.00,,2013-05-04 14:04:00,
2013-05-04 16:09:00,80.8,60.8,29.97,NNW,337,1.7,2.2,51,0.00,,,0.00,,2013-05-04 14:09:00,
2013-05-04 16:14:00,80.6,60.6,29.97,NW,315,1.7,4.9,51,0.00,,,0.00,,2013-05-04 14:14:00,
2013-05-04 16:19:00,80.1,60.3,29.97,West,270,1.7,2.6,51,0.00,,,0.00,,2013-05-04 14:19:00,
2013-05-04 16:24:00,80.2,61.0,29.97,West,270,1.3,2.2,52,0.00,,,0.00,,2013-05-04 14:24:00,
2013-05-04 16:29:00,80.1,60.3,29.97,WSW,247,2.6,5.3,51,0.00,,,0.00,,2013-05-04 14:29:00,
2013-05-04 16:34:00,79.9,60.1,29.97,WSW,247,1.3,2.6,51,0.00,,,0.00,,2013-05-04 14:34:00,
2013-05-04 16:39:00,79.3,59.5,29.97,WSW,247,2.2,2.6,51,0.00,,,0.00,,2013-05-04 14:39:00,
2013-05-04 16:44:00,79.3,60.6,29.97,SW,225,1.7,3.1,53,0.00,,,0.00,,2013-05-04 14:44:00,
2013-05-04 16:49:00,78.6,61.0,29.97,WSW,247,3.5,4.0,55,0.00,,,0.00,,2013-05-04 14:49:00,
2013-05-04 16:54:00,78.6,61.5,29.97,WNW,292,2.6,5.3,56,0.00,,,0.00,,2013-05-04 14:54:00,
2013-05-04 16:59:00,78.6,61.5,29.97,SW,225,3.1,4.0,56,0.00,,,0.00,,2013-05-04 14:59:00,
2013-05-04 17:04:00,78.8,61.2,29.97,WSW,247,2.2,2.6,55,0.00,,,0.00,,2013-05-04 15:04:00,
2013-05-04 17:09:00,78.4,60.8,29.97,WNW,292,2.2,5.3,55,0.00,,,0.00,,2013-05-04 15:09:00,
2013-05-04 17:14:00,78.6,60.4,29.97,WSW,247,2.2,4.0,54,0.00,,,0.00,,2013-05-04 15:14:00,
2013-05-04 17:19:00,78.3,60.1,29.97,SSW,202,1.7,2.6,54,0.00,,,0.00,,2013-05-04 15:19:00,
2013-05-04 17:24:00,78.8,61.2,29.97,SW,225,2.2,4.0,55,0.00,,,0.00,,2013-05-04 15:24:00,
2013-05-04 17:29:00,78.8,60.1,29.97,WNW,292,2.2,3.1,53,0.00,,,0.00,,2013-05-04 15:29:00,
2013-05-04 17:34:00,78.6,60.4,30.00,WSW,247,2.2,2.2,54,0.00,,,0.00,,2013-05-04 15:34:00,
2013-05-04 17:39:00,78.6,59.9,30.00,WSW,247,1.7,1.7,53,0.00,,,0.00,,2013-05-04 15:39:00,
2013-05-04 17:44:00,78.3,59.7,29.97,WNW,292,2.2,2.2,53,0.00,,,0.00,,2013-05-04 15:44:00,
2013-05-04 17:49:00,78.1,59.5,29.97,WNW,292,1.7,4.4,53,0.00,,,0.00,,2013-05-04 15:49:00,
2013-05-04 17:54:00,77.7,59.7,29.97,WSW,247,1.7,3.1,54,0.00,,,0.00,,2013-05-04 15:54:00,
2013-05-04 17:59:00,77.5,59.5,29.97,WNW,292,1.7,1.7,54,0.00,,,0.00,,2013-05-04 15:59:00,
2013-05-04 18:04:00,77.4,58.8,29.97,West,270,1.3,2.6,53,0.00,,,0.00,,2013-05-04 16:04:00,
2013-05-04 18:09:00,77.0,58.5,29.97,WNW,292,3.1,3.1,53,0.00,,,0.00,,2013-05-04 16:09:00,
2013-05-04 18:14:00,76.8,58.3,29.97,NW,315,2.6,4.0,53,0.00,,,0.00,,2013-05-04 16:14:00,
2013-05-04 18:19:00,76.5,57.9,29.97,West,270,2.2,2.6,53,0.00,,,0.00,,2013-05-04 16:19:00,
2013-05-04 18:24:00,76.3,57.7,29.97,WNW,292,1.7,2.6,53,0.00,,,0.00,,2013-05-04 16:24:00,
2013-05-04 18:29:00,75.9,57.4,29.97,SW,225,2.2,2.6,53,0.00,,,0.00,,2013-05-04 16:29:00,
2013-05-04 18:34:00,75.7,57.4,29.97,West,270,1.3,1.7,53,0.00,,,0.00,,2013-05-04 16:34:00,
2013-05-04 18:39:00,75.6,57.2,29.97,WSW,247,1.7,3.5,53,0.00,,,0.00,,2013-05-04 16:39:00,
2013-05-04 18:44:00,75.2,57.7,30.00,SW,225,2.2,2.2,55,0.00,,,0.00,,2013-05-04 16:44:00,
2013-05-04 18:49:00,75.0,57.7,30.00,SW,225,1.7,3.5,55,0.00,,,0.00,,2013-05-04 16:49:00,
2013-05-04 18:54:00,75.2,57.4,29.97,WSW,247,1.3,2.2,54,0.00,,,0.00,,2013-05-04 16:54:00,
2013-05-04 18:59:00,75.0,57.2,29.97,WSW,247,1.3,2.2,54,0.00,,,0.00,,2013-05-04 16:59:00,
2013-05-04 19:04:00,75.0,57.7,30.00,WNW,292,1.3,2.6,55,0.00,,,0.00,,2013-05-04 17:04:00,
2013-05-04 19:09:00,74.5,56.7,30.00,West,270,2.2,3.1,54,0.00,,,0.00,,2013-05-04 17:09:00,
2013-05-04 19:14:00,74.1,56.8,30.00,NW,315,1.7,2.6,55,0.00,,,0.00,,2013-05-04 17:14:00,
2013-05-04 19:19:00,73.9,56.7,30.00,WSW,247,1.3,1.3,55,0.00,,,0.00,,2013-05-04 17:19:00,
2013-05-04 19:24:00,73.4,56.1,30.00,West,270,1.7,1.7,55,0.00,,,0.00,,2013-05-04 17:24:00,
2013-05-04 19:29:00,73.0,56.3,30.00,WNW,292,2.2,2.6,56,0.00,,,0.00,,2013-05-04 17:29:00,
2013-05-04 19:34:00,72.5,56.3,30.00,WNW,292,1.3,1.3,57,0.00,,,0.00,,2013-05-04 17:34:00,
2013-05-04 19:39:00,72.1,55.9,30.00,West,270,0.8,1.7,57,0.00,,,0.00,,2013-05-04 17:39:00,
2013-05-04 19:44:00,72.0,55.8,30.03,WNW,292,1.3,2.2,57,0.00,,,0.00,,2013-05-04 17:44:00,
2013-05-04 19:49:00,71.6,55.9,30.03,WSW,247,0.4,0.4,58,0.00,,,0.00,,2013-05-04 17:49:00,
2013-05-04 19:54:00,71.2,56.1,30.00,West,270,0.4,2.2,59,0.00,,,0.00,,2013-05-04 17:54:00,
2013-05-04 19:59:00,71.1,55.9,30.00,WSW,247,0.4,1.7,59,0.00,,,0.00,,2013-05-04 17:59:00,
2013-05-04 20:04:00,70.7,55.6,30.03,NW,315,0.8,3.5,59,0.00,,,0.00,,2013-05-04 18:04:00,
2013-05-04 20:09:00,70.2,55.6,30.03,NW,315,0.8,2.6,60,0.00,,,0.00,,2013-05-04 18:09:00,
2013-05-04 20:14:00,69.8,55.2,30.03,WSW,247,0.4,0.8,60,0.00,,,0.00,,2013-05-04 18:14:00,
2013-05-04 20:19:00,69.4,55.4,30.03,NW,315,1.3,2.2,61,0.00,,,0.00,,2013-05-04 18:19:00,
2013-05-04 20:24:00,68.9,54.3,30.00,West,270,3.5,4.4,60,0.00,,,0.00,,2013-05-04 18:24:00,
2013-05-04 20:29:00,68.4,53.4,30.00,NW,315,1.3,1.7,59,0.00,,,0.00,,2013-05-04 18:29:00,
2013-05-04 20:34:00,67.8,52.9,30.03,WNW,292,0.4,2.6,59,0.00,,,0.00,,2013-05-04 18:34:00,
2013-05-04 20:39:00,67.5,52.5,30.03,WSW,247,0.8,0.8,59,0.00,,,0.00,,2013-05-04 18:39:00,
2013-05-04 20:44:00,67.1,51.8,30.03,West,270,0.8,0.8,58,0.00,,,0.00,,2013-05-04 18:44:00,
2013-05-04 20:49:00,66.7,51.4,30.03,SW,225,0.4,1.3,58,0.00,,,0.00,,2013-05-04 18:49:00,
2013-05-04 20:54:00,66.4,50.5,30.03,SW,225,0.8,0.8,57,0.00,,,0.00,,2013-05-04 18:54:00,
2013-05-04 20:59:00,66.0,50.2,30.03,West,270,0.8,2.2,57,0.00,,,0.00,,2013-05-04 18:59:00,
2013-05-04 21:04:00,65.8,50.0,30.03,WNW,292,0.8,2.2,57,0.00,,,0.00,,2013-05-04 19:04:00,
2013-05-04 21:09:00,65.7,50.4,30.03,South,180,0.4,0.0,58,0.00,,,0.00,,2013-05-04 19:09:00,
2013-05-04 21:14:00,65.5,50.2,30.06,SW,225,0.0,0.0,58,0.00,,,0.00,,2013-05-04 19:14:00,
2013-05-04 21:19:00,65.1,49.8,30.06,SW,225,0.8,0.8,58,0.00,,,0.00,,2013-05-04 19:19:00,
2013-05-04 21:24:00,64.9,49.6,30.03,SSW,202,0.0,0.4,58,0.00,,,0.00,,2013-05-04 19:24:00,
2013-05-04 21:29:00,64.9,49.6,30.03,NNW,337,0.8,4.0,58,0.00,,,0.00,,2013-05-04 19:29:00,
2013-05-04 21:34:00,65.1,49.8,30.06,North,0,0.0,0.0,58,0.00,,,0.00,,2013-05-04 19:34:00,
2013-05-04 21:39:00,65.1,49.8,30.06,WNW,292,0.0,0.0,58,0.00,,,0.00,,2013-05-04 19:39:00,
2013-05-04 21:44:00,65.1,49.8,30.03,NE,45,0.0,0.0,58,0.00,,,0.00,,2013-05-04 19:44:00,
2013-05-04 21:49:00,65.1,49.5,30.03,WNW,292,0.4,1.7,57,0.00,,,0.00,,2013-05-04 19:49:00,
2013-05-04 21:54:00,65.1,49.5,30.03,NNW,337,0.0,0.0,57,0.00,,,0.00,,2013-05-04 19:54:00,
2013-05-04 21:59:00,65.3,49.6,30.03,NNE,22,0.8,2.6,57,0.00,,,0.00,,2013-05-04 19:59:00,
2013-05-04 22:04:00,65.3,49.6,30.03,NNE,22,0.4,0.0,57,0.00,,,0.00,,2013-05-04 20:04:00,
2013-05-04 22:09:00,65.3,49.6,30.03,NW,315,0.0,0.0,57,0.00,,,0.00,,2013-05-04 20:09:00,
2013-05-04 22:14:00,65.3,49.1,30.03,NNE,22,1.3,1.3,56,0.00,,,0.00,,2013-05-04 20:14:00,
2013-05-04 22:19:00,65.3,49.1,30.03,NNE,22,1.7,2.6,56,0.00,,,0.00,,2013-05-04 20:19:00,
2013-05-04 22:24:00,65.3,49.1,30.03,NE,45,0.8,0.0,56,0.00,,,0.00,,2013-05-04 20:24:00,
2013-05-04 22:29:00,65.3,49.1,30.03,NE,45,0.4,0.0,56,0.00,,,0.00,,2013-05-04 20:29:00,
2013-05-04 22:34:00,65.3,49.1,30.03,NE,45,1.7,2.6,56,0.00,,,0.00,,2013-05-04 20:34:00,
2013-05-04 22:39:00,65.3,49.1,30.03,North,0,0.0,0.0,56,0.00,,,0.00,,2013-05-04 20:39:00,
2013-05-04 22:44:00,65.3,48.6,30.03,North,0,0.0,0.0,55,0.00,,,0.00,,2013-05-04 20:44:00,
2013-05-04 22:49:00,65.3,49.1,30.03,East,90,0.0,0.0,56,0.00,,,0.00,,2013-05-04 20:49:00,
2013-05-04 22:54:00,65.5,49.3,30.06,SE,135,0.0,0.0,56,0.00,,,0.00,,2013-05-04 20:54:00,
2013-05-04 22:59:00,65.7,48.9,30.06,SE,135,0.4,1.7,55,0.00,,,0.00,,2013-05-04 20:59:00,
2013-05-04 23:04:00,65.7,48.9,30.06,SE,135,0.4,0.0,55,0.00,,,0.00,,2013-05-04 21:04:00,
2013-05-04 23:09:00,65.7,48.9,30.06,SE,135,0.4,0.4,55,0.00,,,0.00,,2013-05-04 21:09:00,
2013-05-04 23:14:00,65.8,49.1,30.06,NE,45,0.4,0.8,55,0.00,,,0.00,,2013-05-04 21:14:00,
2013-05-04 23:19:00,66.0,48.7,30.06,NE,45,0.4,0.0,54,0.00,,,0.00,,2013-05-04 21:19:00,
2013-05-04 23:24:00,66.2,48.9,30.06,NE,45,0.8,0.0,54,0.00,,,0.00,,2013-05-04 21:24:00,
2013-05-04 23:29:00,66.4,48.6,30.06,ENE,67,1.7,2.2,53,0.00,,,0.00,,2013-05-04 21:29:00,
2013-05-04 23:34:00,66.6,48.7,30.03,ESE,112,0.8,3.1,53,0.00,,,0.00,,2013-05-04 21:34:00,
2013-05-04 23:39:00,66.7,48.9,30.03,East,90,0.8,2.2,53,0.00,,,0.00,,2013-05-04 21:39:00,
2013-05-04 23:44:00,66.7,48.9,30.03,NE,45,0.4,0.8,53,0.00,,,0.00,,2013-05-04 21:44:00,
2013-05-04 23:49:00,66.9,48.6,30.03,ESE,112,0.8,2.2,52,0.00,,,0.00,,2013-05-04 21:49:00,
2013-05-04 23:54:00,66.9,48.6,30.06,NE,45,0.8,2.6,52,0.00,,,0.00,,2013-05-04 21:54:00,
2013-05-04 23:59:00,67.1,48.7,30.06,East,90,0.8,0.8,52,0.00,,,0.00,,2013-05-04 21:59:00,